sat.trackr.live / text

‹ back to catalog

GARAI-B (UNAMUNO)

NORAD 68463 · 2026-067AZ

PAYLOAD ACTIVE UNKNOWN

§ Identity

Operator
Country
SPN
Launch date
2026-03-30
Launch site
AFWTR
Launch vehicle
Mass (kg)
RCS (m²)

External: N2YO · Heavens-Above · Gunter

§ Orbital elements

Epoch: 2026-05-24T19:55:56.260128Z

Period
94.89 min
Inclination
97.4520°
Eccentricity
0.0004835
Mean motion
15.17491393 rev/d
Perigee alt
510.1 km
Apogee alt
516.8 km
Semi-major
6,891.6 km
B*
3.1921e-4
RAAN
103.5816°
Arg perigee
129.5683°
Mean anomaly
230.5978°
Rev number
839

§ Raw data

GARAI-B (UNAMUNO)1 68463U 26067AZ  26144.83051227  .00006332  00000+0  31921-3 0  99952 68463  97.4520 103.5816 0004835 129.5683 230.5978 15.17491393  8391

JSON: /api/v1/satellites/68463 · /tle

For live sub-satellite position, see the globe view (requires WebGL).

§ Visibility from observer

Set your observer location to see the next 7 days of passes ≥ 10°. The values pass through the URL so the page stays shareable.

No JS? Fill the form by hand. The geolocation button needs JavaScript.